Location: Caltech
(34.1382°N, 118.1253°W)
Time: 19:23:18
(UTC-07:00)

Cosmos 1833 Rocket - Visible Passes

Search period start: 24 July 2016 00:00
Search period end: 03 August 2016 00:00
Orbit: 834 x 838 km, 71.0° (Epoch: 24 July)

Date Brightness Start Highest point End Pass type
(mag) Time Alt. Az. Time Alt. Az. Time Alt. Az.
24 Jul 5.1 01:01:31 10° WNW 01:02:23 13° WNW 01:02:23 13° WNW visible
24 Jul 3.4 22:59:41 10° N 23:04:19 43° NE 23:04:19 43° NE visible
25 Jul 5.0 00:44:37 10° NW 00:46:00 15° WNW 00:46:00 15° WNW visible
25 Jul 3.4 22:43:05 10° N 22:47:59 41° NE 22:47:59 41° NE visible
26 Jul 4.8 00:27:45 10° NW 00:29:40 17° WNW 00:29:40 17° WNW visible
26 Jul 3.4 22:26:29 10° N 22:31:40 38° ENE 22:31:40 38° ENE visible
27 Jul 4.7 00:10:55 10° NW 00:13:22 20° WNW 00:13:22 20° WNW visible
27 Jul 3.5 22:09:53 10° N 22:14:59 35° ENE 22:15:24 34° ENE visible
27 Jul 4.5 23:54:05 10° NW 23:57:06 23° WNW 23:57:06 23° WNW visible
28 Jul 3.6 21:53:18 10° N 21:58:17 32° ENE 21:59:10 30° E visible
28 Jul 4.3 23:37:17 10° NW 23:40:51 27° W 23:40:51 27° W visible
29 Jul 3.7 21:36:44 10° N 21:41:35 29° ENE 21:42:58 26° E visible
29 Jul 4.0 23:20:30 10° NW 23:24:40 31° W 23:24:40 31° W visible
30 Jul 3.9 21:20:09 10° N 21:24:52 27° ENE 21:26:48 22° E visible
30 Jul 3.8 23:03:44 10° NW 23:08:30 35° W 23:08:30 35° W visible
31 Jul 4.0 21:03:36 10° N 21:08:09 25° ENE 21:10:41 18° E visible
31 Jul 3.6 22:46:58 10° NW 22:52:09 39° WSW 22:52:24 38° WSW visible
01 Aug 4.1 20:47:04 10° N 20:51:26 23° ENE 20:54:37 15° E visible
01 Aug 3.4 22:30:14 10° NW 22:35:29 43° WSW 22:36:20 40° SW visible
02 Aug 4.2 20:30:33 10° N 20:34:43 21° ENE 20:38:36 11° ESE visible
02 Aug 3.4 22:13:29 10° NNW 22:18:50 47° WSW 22:20:18 38° SW visible
